Location: Big Meadows
(38.5260°N, 78.4400°W)
Time: 22:49:33
(UTC-05:00)

Amateur Radio Satellites - All Passes

Search period start: 19 December 2014 22:19
Search period end: 20 December 2014 22:19
Location: Big Meadows, 38.5260°N, 78.4400°W

Satellite Date Start Highest point End Downlink Frequencies (MHz)
Time Altitude Azimuth
HUMSAT D 19 Dec 22:26:56 22:30:54 47° 261° (W) 22:34:56 437.325/437.525
Oscar 11 19 Dec 22:29:27 22:31:20 13° 269° (W) 22:33:14 145.826/435.025
RS-15 19 Dec 22:29:48 22:40:27 49° 250° (WSW) 22:51:34 29.354- 29.394
QB50P1 19 Dec 22:29:50 22:33:22 25° 96° (E) 22:36:53 145.935-145.965
BEESAT 3 19 Dec 22:34:40 22:38:51 73° 58° (ENE) 22:42:58 437.485
AIST 2 19 Dec 22:35:57 22:39:50 32° 52° (NE) 22:43:40 435.215
UKube-1 19 Dec 22:37:02 22:39:08 13° 268° (W) 22:41:15 .
CUBEBUG 2 19 Dec 22:42:05 22:44:17 14° 268° (W) 22:46:31 437.445
TIGRISAT 19 Dec 22:45:39 22:50:19 62° 101° (E) 22:54:59 435.000
YUBILEINY 19 Dec 22:48:18 22:54:57 25° 82° (E) 23:01:35 435.215
PCSat 19 Dec 22:49:42 22:54:50 42° 56° (NE) 22:59:56 145.827
ESTCUBE 1 19 Dec 22:51:31 22:56:03 74° 258° (WSW) 23:00:36 437.505/2401.250
VELOX 1 19 Dec 22:53:35 22:57:18 26° 264° (W) 23:01:02 145.980
ZACube-1 19 Dec 22:57:08 22:59:09 13° 269° (W) 23:01:10 437.345
POPSAT HIP 1 19 Dec 22:57:53 23:02:04 53° 100° (E) 23:06:15 437.405
DANDE 19 Dec 23:04:36 23:07:59 13° 278° (W) 23:11:30 436.750
BEESAT 2 19 Dec 23:13:48 23:17:49 46° 244° (WSW) 23:21:45 435.950
UNISAT 6 19 Dec 23:14:19 23:18:59 64° 285° (WNW) 23:23:39 437.425
TISAT 1 19 Dec 23:20:35 23:24:39 52° 74° (ENE) 23:28:45 437.305
SPROUT 19 Dec 23:20:44 23:24:51 48° 73° (ENE) 23:28:58 437.525
DUCHIFAT 1 19 Dec 23:26:23 23:30:37 70° 285° (WNW) 23:34:51 145.980
BUGSAT 1 19 Dec 23:30:07 23:34:10 79° 284° (WNW) 23:38:14 437.445
QB50P2 19 Dec 23:39:21 23:43:28 48° 287° (WNW) 23:47:35 145.880/145.840
SWISSCUBE 19 Dec 23:42:23 23:45:19 16° 64° (ENE) 23:48:16 437.505
ITUPSAT 1 19 Dec 23:42:46 23:45:27 15° 63° (ENE) 23:48:07 437.325
CUBEBUG 1 19 Dec 23:46:20 23:49:27 19° 266° (W) 23:52:35 437.445
ANTELSAT 19 Dec 23:46:37 23:50:42 30° 290° (WNW) 23:54:47 437.575/2403.000
POLYITAN 1 19 Dec 23:47:57 23:51:56 39° 288° (WNW) 23:55:55 437.675
NANOSAT C BR1 19 Dec 23:51:05 23:54:59 36° 288° (WNW) 23:58:53 145.865
AUBIESAT-1 19 Dec 23:55:28 23:57:57 14° 58° (ENE) 00:00:26 437.475
QB50P1 20 Dec 00:05:40 00:09:10 25° 291° (WNW) 00:12:40 145.935-145.965
BEESAT 20 Dec 00:06:24 00:10:21 26° 68° (ENE) 00:14:18 436.000
AIST 2 20 Dec 00:14:53 00:18:17 23° 249° (WSW) 00:21:38 435.215
M-CUBED/EXP-1 PRIME 20 Dec 00:18:40 00:22:36 26° 63° (ENE) 00:26:36 437.505
TIGRISAT 20 Dec 00:24:13 00:26:31 14° 296° (WNW) 00:28:50 435.000
PCSat 20 Dec 00:33:36 00:37:59 26° 253° (WSW) 00:42:21 145.827
POPSAT HIP 1 20 Dec 00:35:34 00:37:30 13° 295° (WNW) 00:39:26 437.405
Oscar 19 20 Dec 00:36:32 00:39:34 16° 92° (E) 00:42:35 437.125/150
YUBILEINY 20 Dec 00:42:19 00:50:59 65° 280° (W) 00:59:39 435.215
SPROUT 20 Dec 00:59:09 01:01:11 13° 268° (W) 01:03:12 437.525
TISAT 1 20 Dec 00:59:19 01:00:46 12° 269° (W) 01:02:14 437.305
O/OREOS (USA 219) 20 Dec 01:03:47 01:08:14 78° 291° (WNW) 01:12:43 437.305
SWISSCUBE 20 Dec 01:18:04 01:22:44 52° 260° (W) 01:27:26 437.505
ITUPSAT 1 20 Dec 01:18:06 01:22:49 58° 259° (W) 01:27:35 437.325
STARS 20 Dec 01:23:05 01:26:21 21° 67° (ENE) 01:29:37 437.465
KKS-1 20 Dec 01:24:09 01:28:04 32° 70° (ENE) 01:32:00 437.445
AUBIESAT-1 20 Dec 01:27:28 01:32:14 74° 254° (WSW) 01:37:09 437.475
BEESAT 20 Dec 01:43:49 01:48:02 31° 263° (W) 01:52:17 436.000
M-CUBED/EXP-1 PRIME 20 Dec 01:52:56 01:57:21 37° 258° (WSW) 02:01:54 437.505
VERMONT LUNAR 20 Dec 02:12:20 02:14:22 15° 145° (SE) 02:16:23 437.305
Oscar 19 20 Dec 02:14:08 02:19:15 58° 287° (WNW) 02:24:20 437.125/150
Gurwin Techsat 1B 20 Dec 02:18:30 02:23:18 34° 97° (E) 02:28:04 435.225
PHONESAT 2.4 20 Dec 02:23:03 02:24:20 12° 143° (SE) 02:25:38 2401.200-2431.200
ITAMSAT 1 20 Dec 02:27:56 02:33:06 69° 102° (ESE) 02:38:15 435.822/435.867
YUBILEINY 20 Dec 02:47:27 02:49:41 11° 302° (WNW) 02:51:55 435.215
HORYU 2 20 Dec 02:47:29 02:51:05 23° 95° (E) 02:54:40 437.375
STARS 20 Dec 02:58:40 03:02:36 33° 262° (W) 03:06:34 437.465
AO-7 20 Dec 03:00:26 03:05:39 18° 91° (E) 03:10:50 29.400- 29.500
KKS-1 20 Dec 03:01:22 03:04:44 21° 265° (W) 03:08:07 437.445
VERMONT LUNAR 20 Dec 03:48:46 03:52:15 63° 160° (SSE) 03:55:45 437.305
Gurwin Techsat 1B 20 Dec 03:58:39 04:03:07 28° 293° (WNW) 04:07:34 435.225
PHONESAT 2.4 20 Dec 03:58:59 04:02:31 51° 157° (SSE) 04:06:03 2401.200-2431.200
AIST 1 20 Dec 04:00:04 04:04:21 78° 264° (W) 04:08:35
MOZHAYETS 4 20 Dec 04:03:51 04:08:20 51° 73° (ENE) 04:12:52
ITAMSAT 1 20 Dec 04:09:17 04:11:59 14° 298° (WNW) 04:14:40 435.822/435.867
HORYU 2 20 Dec 04:23:46 04:27:44 31° 290° (WNW) 04:31:41 437.375
GONETS M04 20 Dec 04:42:13 04:49:33 31° 84° (E) 04:56:53
AO-7 20 Dec 04:50:54 04:59:19 87° 289° (WNW) 05:07:41 29.400- 29.500
SO-50 20 Dec 05:00:07 05:03:36 19° 45° (NE) 05:07:05 436.795
PRISM 20 Dec 05:04:13 05:08:01 33° 71° (ENE) 05:11:50 437.425
Cubesat XI-IV 20 Dec 05:19:30 05:22:16 14° 91° (E) 05:25:02 437.490
STRAND 1 20 Dec 05:19:41 05:23:40 23° 66° (ENE) 05:27:39 437.568
CUBESAT XI-V 20 Dec 05:25:38 05:29:33 27° 69° (ENE) 05:33:28 437.345
JAS-2 20 Dec 05:26:58 05:32:38 85° 103° (ESE) 05:37:51 435.910
VERMONT LUNAR 20 Dec 05:27:08 05:30:38 62° 356° (N) 05:34:08 437.305
PHONESAT 2.4 20 Dec 05:37:35 05:41:12 66° 354° (N) 05:44:49 2401.200-2431.200
MOZHAYETS 4 20 Dec 05:43:18 05:45:50 15° 269° (W) 05:48:23
CUTE-I 20 Dec 05:51:29 05:56:05 29° 96° (E) 06:00:40 437.470
GONETS M04 20 Dec 06:37:14 06:45:50 55° 282° (WNW) 06:54:30
SO-50 20 Dec 06:39:42 06:44:33 61° 242° (WSW) 06:49:22 436.795
PRISM 20 Dec 06:40:36 06:43:36 19° 266° (W) 06:46:37 437.425
AO-7 20 Dec 06:45:29 06:50:56 20° 308° (NW) 06:56:23 29.400- 29.500
Cubesat XI-IV 20 Dec 06:57:31 07:02:47 65° 287° (WNW) 07:08:02 437.490
STRAND 1 20 Dec 06:57:50 07:02:36 39° 262° (W) 07:07:23 437.568
CUBESAT XI-V 20 Dec 07:02:53 07:06:53 28° 264° (W) 07:10:54 437.345
VERMONT LUNAR 20 Dec 07:05:34 07:09:07 83° 13° (NNE) 07:12:39 437.305
JAS-2 20 Dec 07:14:51 07:16:45 12° 303° (WNW) 07:18:37 435.910
PHONESAT 2.4 20 Dec 07:16:26 07:20:04 75° 10° (N) 07:23:42 2401.200-2431.200
CUTE-I 20 Dec 07:31:25 07:36:06 33° 292° (WNW) 07:40:47 437.470
BRITE-PL 20 Dec 07:45:32 07:46:24 10° 91° (E) 07:47:16 437.365/2234.400
SEEDS 20 Dec 08:05:01 08:06:07 11° 90° (E) 08:07:13 437.485
CUTE 1.7 + AOD 2 20 Dec 08:06:41 08:08:56 14° 92° (E) 08:11:11 437.475
GOMX 1 20 Dec 08:13:08 08:16:04 16° 93° (E) 08:19:05 467.674
MaSat-1 20 Dec 08:30:33 08:32:37 27° 111° (ESE) 08:34:36 437.345
DOVE 4 20 Dec 08:40:18 08:44:05 23° 95° (E) 08:48:00 437.250
Oscar 11 20 Dec 08:42:34 08:43:18 10° 90° (E) 08:44:03 145.826/435.025
VERMONT LUNAR 20 Dec 08:44:09 08:47:15 29° 209° (SSW) 08:50:20 437.305
DANDE 20 Dec 08:52:03 08:53:20 12° 80° (E) 08:54:43 436.750
HO-68 20 Dec 08:53:13 09:00:13 55° 101° (ESE) 09:07:09 435.675
PHONESAT 2.4 20 Dec 08:55:17 08:58:39 36° 207° (SSW) 09:02:01 2401.200-2431.200
CUBEBUG 2 20 Dec 08:58:07 08:59:37 11° 90° (E) 09:01:06 437.445
AAUSAT CUBESAT 2 20 Dec 08:58:24 09:02:17 34° 97° (E) 09:06:07 437.432
POLYITAN 1 20 Dec 09:07:09 09:08:23 11° 63° (ENE) 09:09:37 437.675
ANTELSAT 20 Dec 09:08:46 09:11:53 19° 66° (ENE) 09:15:03 437.575/2403.000
CINEMA 3 20 Dec 09:09:18 09:13:19 26° 96° (E) 09:17:26 145.822/145.860
NANOSAT C BR1 20 Dec 09:09:32 09:11:02 12° 64° (ENE) 09:12:32 145.865
CANX-2 20 Dec 09:09:53 09:14:13 85° 102° (ESE) 09:18:32 2200.000
ZACube-1 20 Dec 09:11:16 09:12:22 11° 90° (E) 09:13:28 437.345
BRITE-PL 20 Dec 09:20:31 09:25:14 76° 284° (WNW) 09:30:20 437.365/2234.400
QB50P1 20 Dec 09:22:32 09:25:13 17° 66° (ENE) 09:27:54 145.935-145.965
COMPASS 1 20 Dec 09:33:07 09:37:23 80° 283° (WNW) 09:41:37 437.405
UWE-3 20 Dec 09:35:18 09:39:08 25° 95° (E) 09:42:59 435.000/436.395/437.385
FUNcube-1 20 Dec 09:36:04 09:39:32 21° 94° (E) 09:43:01 145.935
O/OREOS (USA 219) 20 Dec 09:37:11 09:39:54 16° 56° (ENE) 09:42:37 437.305
SEEDS 20 Dec 09:38:04 09:42:17 58° 285° (WNW) 09:46:29 437.485
CUTE 1.7 + AOD 2 20 Dec 09:40:57 09:45:05 46° 287° (WNW) 09:49:12 437.475
CUSAT 1 20 Dec 09:42:42 09:46:08 73° 96° (E) 09:50:44 437.405
TIGRISAT 20 Dec 09:43:24 09:47:30 44° 72° (ENE) 09:51:44 435.000
GOMX 1 20 Dec 09:49:43 09:54:21 53° 286° (WNW) 09:59:18 467.674
POPSAT HIP 1 20 Dec 09:49:54 09:53:40 33° 71° (ENE) 09:57:27 437.405
DX 1 20 Dec 09:52:12 09:56:26 50° 100° (E) 10:00:39 434.975-435.025
DELFI C3 20 Dec 09:52:32 09:56:37 59° 100° (E) 10:00:39 145.870
AISAT 20 Dec 09:52:43 09:55:34 17° 93° (E) 09:58:25 437.250
50 SAT 20 Dec 09:55:41 09:57:59 14° 92° (E) 10:00:17 437.505
UNISAT 6 20 Dec 10:12:03 10:16:24 84° 257° (WSW) 10:20:53 437.425
HUMSAT D 20 Dec 10:13:03 10:16:54 30° 97° (E) 10:20:44 437.325/437.525
Oscar 11 20 Dec 10:15:32 10:19:51 62° 285° (WNW) 10:24:09 145.826/435.025
DOVE 4 20 Dec 10:17:29 10:21:52 37° 288° (WNW) 10:26:28 437.250
DUCHIFAT 1 20 Dec 10:17:40 10:21:50 71° 76° (ENE) 10:26:02 145.980
BUGSAT 1 20 Dec 10:18:59 10:23:01 58° 74° (ENE) 10:27:01 437.445
UKube-1 20 Dec 10:23:44 10:28:04 72° 285° (WNW) 10:32:22 .
QB50P2 20 Dec 10:30:52 10:35:05 78° 258° (WSW) 10:39:19 145.880/145.840
CUBEBUG 2 20 Dec 10:32:03 10:36:40 67° 285° (WNW) 10:41:22 437.445
DANDE 20 Dec 10:32:57 10:36:03 32° 289° (WNW) 10:40:02 436.750
AAUSAT CUBESAT 2 20 Dec 10:34:43 10:37:41 19° 293° (WNW) 10:40:39 437.432
POLYITAN 1 20 Dec 10:39:38 10:43:47 61° 259° (W) 10:47:58 437.675
RS-15 20 Dec 10:40:44 10:49:58 33° 105° (ESE) 10:59:07 29.354- 29.394
HO-68 20 Dec 10:41:39 10:47:29 28° 299° (WNW) 10:53:19 435.675
NANOSAT C BR1 20 Dec 10:42:16 10:46:24 57° 259° (W) 10:50:33 145.865
ANTELSAT 20 Dec 10:44:24 10:48:24 36° 263° (W) 10:52:31 437.575/2403.000
ZACube-1 20 Dec 10:44:36 10:49:06 66° 285° (WNW) 10:53:40 437.345
VELOX 1 20 Dec 10:45:01 10:49:25 64° 101° (ESE) 10:53:48 145.980
CINEMA 3 20 Dec 10:46:19 10:50:28 31° 290° (WNW) 10:54:44 145.822/145.860
ESTCUBE 1 20 Dec 10:46:28 10:50:13 26° 96° (E) 10:53:56 437.505/2401.250
YUBILEINY 20 Dec 10:54:12 11:02:47 60° 79° (E) 11:11:20 435.215
QB50P1 20 Dec 10:56:52 11:00:47 38° 262° (W) 11:04:44 145.935-145.965
UWE-3 20 Dec 11:11:38 11:15:37 30° 290° (WNW) 11:19:38 435.000/436.395/437.385
FUNcube-1 20 Dec 11:11:49 11:15:54 34° 289° (WNW) 11:20:02 145.935
O/OREOS (USA 219) 20 Dec 11:15:14 11:19:37 51° 253° (WSW) 11:24:00 437.305
TIGRISAT 20 Dec 11:22:02 11:24:30 15° 268° (W) 11:27:00 435.000
POPSAT HIP 1 20 Dec 11:26:43 11:29:38 18° 266° (W) 11:32:34 437.405
AISAT 20 Dec 11:28:12 11:32:21 41° 288° (WNW) 11:36:30 437.250
50 SAT 20 Dec 11:29:28 11:33:22 41° 287° (WNW) 11:37:17 437.505
DX 1 20 Dec 11:29:57 11:32:14 14° 296° (WNW) 11:34:32 434.975-435.025
DELFI C3 20 Dec 11:30:13 11:31:21 11° 296° (WNW) 11:32:28 145.870
CUBEBUG 1 20 Dec 11:35:22 11:39:43 87° 103° (ESE) 11:44:04 437.445
HUMSAT D 20 Dec 11:49:11 11:52:31 22° 292° (WNW) 11:55:51 437.325/437.525
Oscar 19 20 Dec 11:51:58 11:55:41 21° 65° (ENE) 11:59:25 437.125/150
ITAMSAT 1 20 Dec 12:09:43 12:10:59 11° 59° (ENE) 12:12:16 435.822/435.867
ESTCUBE 1 20 Dec 12:23:14 12:27:01 27° 291° (WNW) 12:30:47 437.505/2401.250
VELOX 1 20 Dec 12:23:51 12:25:26 12° 297° (WNW) 12:27:02 145.980
BEESAT 3 20 Dec 12:29:02 12:32:00 20° 111° (ESE) 12:35:00 437.485
TISAT 1 20 Dec 12:42:38 12:46:50 66° 285° (WNW) 12:51:02 437.305
SPROUT 20 Dec 12:44:49 12:49:06 68° 285° (WNW) 12:53:22 437.525
RS-15 20 Dec 12:50:38 13:01:29 65° 306° (NW) 13:12:24 29.354- 29.394
YUBILEINY 20 Dec 12:52:04 12:58:55 27° 277° (W) 13:05:47 435.215
BEESAT 2 20 Dec 13:07:27 13:11:23 47° 116° (ESE) 13:15:24 435.950
SWISSCUBE 20 Dec 13:20:03 13:24:36 44° 99° (E) 13:29:07 437.505
ITUPSAT 1 20 Dec 13:20:26 13:24:55 40° 99° (E) 13:29:23 437.325
JUGNU 20 Dec 13:21:51 13:23:58 12° 177° (S) 13:26:04 437.505
Oscar 19 20 Dec 13:29:44 13:34:39 46° 261° (W) 13:39:37 437.125/150
PCSat 20 Dec 13:29:47 13:34:59 51° 112° (ESE) 13:40:13 145.827
Gurwin Techsat 1B 20 Dec 13:38:06 13:43:09 47° 71° (ENE) 13:48:13 435.225
M-CUBED/EXP-1 PRIME 20 Dec 13:38:30 13:41:45 21° 98° (E) 13:44:46 437.505
ITAMSAT 1 20 Dec 13:44:29 13:49:41 90° 76° (ENE) 13:54:53 435.822/435.867
BEESAT 20 Dec 13:44:58 13:49:45 76° 103° (ESE) 13:54:30 436.000
HORYU 2 20 Dec 13:45:20 13:48:27 19° 66° (ENE) 13:51:36 437.375
ISS 20 Dec 13:52:40 13:55:58 76° 322° (NW) 13:59:17 145.825
AO-7 20 Dec 13:58:01 14:04:19 25° 55° (NE) 14:10:36 29.400- 29.500
BEESAT 3 20 Dec 14:06:09 14:09:55 35° 307° (NW) 14:13:46 437.485
AIST 2 20 Dec 14:10:54 14:15:07 77° 301° (WNW) 14:19:25 435.215
SRMSAT 20 Dec 14:25:15 14:26:57 11° 175° (S) 14:28:38 437.500
BEESAT 2 20 Dec 14:47:05 14:49:53 18° 314° (NW) 14:52:44 435.950
AUBIESAT-1 20 Dec 14:47:08 14:51:26 66° 290° (WNW) 14:55:20 437.475
STARS 20 Dec 14:49:40 14:53:59 49° 100° (E) 14:58:17 437.465
KKS-1 20 Dec 14:52:45 14:57:14 82° 103° (ESE) 15:01:43 437.445
GONETS M04 20 Dec 14:55:44 14:59:18 13° 59° (ENE) 15:02:51
SWISSCUBE 20 Dec 14:58:50 15:02:06 19° 295° (WNW) 15:05:21 437.505
ITUPSAT 1 20 Dec 14:59:03 15:02:31 20° 294° (WNW) 15:05:58 437.325
RS-15 20 Dec 15:08:31 15:16:32 22° 334° (NNW) 15:24:42 29.354- 29.394
JUGNU 20 Dec 15:11:00 15:12:04 11° 188° (S) 15:13:08 437.505
M-CUBED/EXP-1 PRIME 20 Dec 15:12:59 15:16:49 31° 296° (WNW) 15:20:22 437.505
PCSat 20 Dec 15:14:23 15:18:40 23° 310° (NW) 15:22:59 145.827
Gurwin Techsat 1B 20 Dec 15:19:30 15:23:19 20° 267° (W) 15:27:10 435.225
HORYU 2 20 Dec 15:20:40 15:24:49 38° 262° (W) 15:29:01 437.375
BEESAT 20 Dec 15:25:23 15:26:55 11° 299° (WNW) 15:28:27 436.000
ISS 20 Dec 15:31:03 15:33:01 15° 340° (NNW) 15:34:59 145.825
JAS-2 20 Dec 15:35:47 15:42:36 37° 68° (ENE) 15:48:54 435.910
AO-7 20 Dec 15:47:57 15:56:15 76° 254° (WSW) 16:04:39 29.400- 29.500
AIST 2 20 Dec 15:54:14 15:54:29 10° 320° (NW) 15:54:45 435.215
MOZHAYETS 4 20 Dec 16:02:20 16:04:40 14° 91° (E) 16:06:58
SRMSAT 20 Dec 16:13:29 16:15:12 11° 185° (S) 16:16:55 437.500
STARS 20 Dec 16:27:32 16:30:02 15° 295° (WNW) 16:32:33 437.465
AIST 1 20 Dec 16:27:53 16:32:14 67° 95° (E) 16:36:35
Cubesat XI-IV 20 Dec 16:39:48 16:43:49 22° 65° (ENE) 16:47:49 437.490
GONETS M04 20 Dec 16:49:05 16:57:52 72° 81° (E) 17:06:31
CUTE-I 20 Dec 17:11:55 17:16:54 42° 70° (ENE) 17:21:54 437.470
JAS-2 20 Dec 17:20:10 17:27:26 44° 262° (W) 17:34:12 435.910
RS-15 20 Dec 17:28:09 17:34:55 17° 12° (NNE) 17:41:48 29.354- 29.394
MOZHAYETS 4 20 Dec 17:37:41 17:42:11 53° 286° (WNW) 17:46:39
AO-7 20 Dec 17:47:07 17:50:15 12° 271° (W) 17:53:24 29.400- 29.500
MaSat-1 20 Dec 18:02:05 18:04:12 26° 62° (ENE) 18:06:24 437.345
Cubesat XI-IV 20 Dec 18:18:29 18:23:34 45° 261° (W) 18:28:40 437.490
PRISM 20 Dec 18:23:48 18:27:57 69° 102° (ESE) 18:32:02 437.425
CUSAT 1 20 Dec 18:41:04 18:44:27 13° 63° (ENE) 18:47:57 437.405
ISS 20 Dec 18:46:33 18:48:31 15° 21° (NNE) 18:50:29 145.825
GONETS M04 20 Dec 18:47:31 18:53:44 22° 280° (W) 18:59:55
CUTE-I 20 Dec 18:53:01 18:57:06 22° 266° (W) 19:01:13 437.470
CUBESAT XI-V 20 Dec 19:00:23 19:05:00 82° 102° (ESE) 19:09:35 437.345
STRAND 1 20 Dec 19:09:23 19:14:30 79° 103° (ESE) 19:19:35 437.568
HO-68 20 Dec 19:20:28 19:26:51 36° 64° (ENE) 19:33:13 435.675
GOMX 1 20 Dec 19:22:13 19:23:45 12° 64° (ENE) 19:25:16 467.674
DANDE 20 Dec 19:30:21 19:36:44 27° 71° (ENE) 19:43:42 436.750
RS-15 20 Dec 19:41:16 19:51:41 41° 44° (NE) 20:02:27 29.354- 29.394
DOVE 4 20 Dec 19:46:23 19:48:58 16° 66° (ENE) 19:51:35 437.250
AAUSAT CUBESAT 2 20 Dec 19:49:03 19:52:10 21° 68° (ENE) 19:55:18 437.432
CANX-2 20 Dec 20:01:33 20:05:40 49° 74° (ENE) 20:09:49 2200.000
CINEMA 3 20 Dec 20:11:14 20:14:06 18° 67° (ENE) 20:17:00 145.822/145.860
CUSAT 1 20 Dec 20:20:54 20:28:41 66° 79° (E) 20:37:09 437.405
ISS 20 Dec 20:22:17 20:25:33 78° 38° (NE) 20:28:49 145.825
COMPASS 1 20 Dec 20:23:13 20:27:21 58° 75° (ENE) 20:31:31 437.405
SEEDS 20 Dec 20:28:43 20:32:57 81° 77° (ENE) 20:37:15 437.485
BRITE-PL 20 Dec 20:30:55 20:35:07 74° 258° (WSW) 20:39:15 437.365/2234.400
CUTE 1.7 + AOD 2 20 Dec 20:32:13 20:36:28 79° 258° (WSW) 20:40:47 437.475
FUNcube-1 20 Dec 20:32:23 20:34:29 14° 65° (ENE) 20:36:37 145.935
UWE-3 20 Dec 20:32:38 20:35:17 17° 66° (ENE) 20:37:59 435.000/436.395/437.385
DELFI C3 20 Dec 20:39:59 20:43:36 31° 71° (ENE) 20:47:15 145.870
DX 1 20 Dec 20:46:41 20:50:39 36° 71° (ENE) 20:54:39 434.975-435.025
AISAT 20 Dec 20:50:42 20:52:56 14° 64° (ENE) 20:55:10 437.250
STRAND 1 20 Dec 20:50:58 20:52:59 12° 299° (WNW) 20:55:01 437.568
BEESAT 3 20 Dec 20:51:00 20:52:11 11° 42° (NE) 20:53:22 437.485
SO-50 20 Dec 20:52:55 20:57:21 62° 118° (ESE) 21:01:57 436.795
GOMX 1 20 Dec 20:57:22 21:01:25 52° 260° (W) 21:05:29 467.674
HUMSAT D 20 Dec 21:05:00 21:07:51 18° 67° (ENE) 21:10:44 437.325/437.525
HO-68 20 Dec 21:07:39 21:14:22 42° 261° (W) 21:21:08 435.675
Oscar 11 20 Dec 21:08:40 21:13:00 84° 77° (ENE) 21:17:22 145.826/435.025
DANDE 20 Dec 21:12:50 21:20:35 69° 265° (W) 21:29:12 436.750
UKube-1 20 Dec 21:17:16 21:21:35 81° 76° (ENE) 21:25:56 .
DOVE 4 20 Dec 21:22:38 21:26:27 36° 262° (W) 21:30:19 437.250
AAUSAT CUBESAT 2 20 Dec 21:23:54 21:27:37 30° 263° (W) 21:31:23 437.432
CUBEBUG 2 20 Dec 21:29:18 21:33:28 87° 77° (ENE) 21:37:45 437.445
BEESAT 2 20 Dec 21:29:19 21:32:35 22° 49° (NE) 21:35:49 435.950
TIGRISAT 20 Dec 21:38:57 21:40:26 11° 90° (E) 21:41:55 435.000
ZACube-1 20 Dec 21:39:27 21:43:37 82° 77° (ENE) 21:47:53 437.345
CANX-2 20 Dec 21:39:59 21:41:52 13° 269° (W) 21:43:47 2200.000
VELOX 1 20 Dec 21:41:34 21:45:48 48° 73° (ENE) 21:50:03 145.980
ESTCUBE 1 20 Dec 21:45:24 21:48:49 21° 67° (ENE) 21:52:14 437.505/2401.250
CINEMA 3 20 Dec 21:47:18 21:51:03 33° 263° (W) 21:54:54 145.822/145.860
RS-15 20 Dec 21:53:32 22:04:38 64° 246° (WSW) 22:16:15 29.354- 29.394
COMPASS 1 20 Dec 22:02:32 22:03:25 11° 270° (W) 22:04:18 437.405
YUBILEINY 20 Dec 22:03:48 22:06:20 12° 75° (ENE) 22:08:52 435.215
CUSAT 1 20 Dec 22:04:56 22:11:19 28° 273° (W) 22:18:05 437.405
UNISAT 6 20 Dec 22:06:10 22:09:59 24° 95° (E) 22:13:46 437.425
DUCHIFAT 1 20 Dec 22:06:12 22:08:10 13° 92° (E) 22:10:08 145.980
FUNcube-1 20 Dec 22:06:22 22:10:23 48° 261° (W) 22:14:30 145.935
UWE-3 20 Dec 22:07:37 22:11:30 38° 262° (W) 22:15:29 435.000/436.395/437.385
